period_start,C,m1,H,J0,J1,J2,J3,J4,J5,JA,JB,JC,JD,JJ,JK,JN,#
2013-11-27 00:00:58,0.16,1.40,0.00,22.59,23.84,26.80,5.79,31.00,999.03,2059.00,3054.85,2940.37,3177.03,350.40,319.16,9.42,0000 0000 0000 0000 000000
2013-11-27 00:01:58,0.18,1.40,0.00,22.56,23.84,26.81,5.77,31.21,998.96,2059.00,3054.36,2940.13,3176.59,348.82,317.81,9.43,0000 0000 0000 0000 000000
2013-11-27 00:02:58,0.19,1.40,0.00,22.56,23.85,26.83,5.88,31.17,998.84,2059.00,3054.12,2940.02,3176.21,350.27,319.01,9.43,0000 0000 0000 0000 000000
2013-11-27 00:03:58,0.11,1.40,0.00,22.59,23.85,26.83,5.76,31.67,998.68,2058.99,3053.65,2939.61,3175.99,350.38,319.03,9.44,0000 0000 0000 0000 000000
2013-11-27 00:04:58,0.23,1.41,0.00,22.58,23.86,26.80,5.81,31.08,998.59,2058.99,3053.24,2939.22,3175.53,348.88,317.65,9.45,0000 0000 0000 0000 000000
2013-11-27 00:05:59,0.20,1.41,0.00,22.60,23.87,26.82,5.87,31.38,998.57,2058.99,3053.06,2939.07,3175.20,350.51,318.83,9.45,0000 0000 0000 0000 000000
2013-11-27 00:06:59,0.10,1.41,0.00,22.59,23.87,26.82,6.11,31.54,998.56,2058.99,3052.61,2938.89,3175.05,350.69,319.28,9.46,0000 0000 0000 0000 000000
2013-11-27 00:07:59,0.16,1.41,0.00,22.60,23.87,26.84,5.79,31.04,998.55,2058.99,3052.23,2938.41,3174.71,349.06,317.78,9.46,0000 0000 0000 0000 000000
2013-11-27 00:08:59,0.22,1.41,0.00,22.54,23.88,26.86,5.78,31.25,998.54,2058.99,3052.07,2938.16,3174.28,349.77,318.61,9.47,0000 0000 0000 0000 000000
2013-11-27 00:10:00,0.14,1.41,0.00,22.53,23.89,26.83,5.86,31.13,998.54,2058.98,3051.66,2938.04,3174.10,349.64,318.05,9.48,0000 0000 0000 0000 000000
2013-11-27 00:11:00,0.11,1.41,0.00,22.52,23.90,26.86,5.80,31.13,998.52,2058.98,3051.25,2937.80,3173.92,350.24,318.94,9.48,0000 0000 0000 0000 000000
2013-11-27 00:12:00,0.17,1.41,0.00,22.56,23.90,26.87,6.01,31.21,998.46,2058.97,3050.97,2937.35,3173.43,350.15,318.08,9.49,0000 0000 0000 0000 000000
2013-11-27 00:13:00,0.20,1.41,0.00,22.59,23.90,26.89,5.99,31.63,998.47,2058.96,3050.42,2937.13,3173.15,350.30,318.89,9.49,0000 0000 0000 0000 000000
2013-11-27 00:14:01,0.17,1.42,0.00,22.59,23.90,26.88,5.75,31.25,998.34,2058.98,3050.14,2936.94,3172.85,349.39,318.02,9.50,0000 0000 0000 0000 000000
2013-11-27 00:15:01,0.15,1.42,0.00,22.58,23.92,26.88,6.01,31.54,998.26,2058.97,3049.78,2936.51,3172.35,349.96,318.54,9.50,0000 0000 0000 0000 000000
2013-11-27 00:16:01,0.24,1.42,0.00,22.54,23.92,26.91,5.84,31.46,998.15,2058.95,3049.32,2936.20,3172.11,350.63,319.15,9.51,0000 0000 0000 0000 000000
2013-11-27 00:17:01,0.14,1.42,0.00,22.53,23.92,26.89,5.73,30.96,998.09,2058.93,3048.96,2935.97,3171.66,349.30,317.94,9.52,0000 0000 0000 0000 000000
2013-11-27 00:18:02,0.18,1.42,0.00,22.56,23.92,26.89,5.89,31.13,998.07,2058.95,3048.45,2935.51,3171.24,350.30,318.85,9.52,0000 0000 0000 0000 000000
2013-11-27 00:19:02,0.27,1.42,0.00,22.61,23.93,26.90,5.88,31.58,998.06,2058.94,3048.17,2935.19,3171.09,349.78,317.76,9.53,0000 0000 0000 0000 000000
2013-11-27 00:20:02,0.12,1.42,0.00,22.64,23.94,26.92,5.90,31.38,998.05,2058.94,3047.92,2935.06,3170.81,349.56,317.99,9.53,0000 0000 0000 0000 000000
2013-11-27 00:21:02,0.11,1.42,0.00,22.61,23.95,26.92,5.89,31.50,998.04,2058.80,3047.38,2934.77,3170.31,350.37,318.80,9.54,0000 0000 0000 0000 000000
2013-11-27 00:22:03,0.10,1.42,0.00,22.63,23.95,26.93,5.91,31.21,997.94,2058.82,3047.14,2934.32,3170.11,350.61,318.97,9.55,0000 0000 0000 0000 000000
2013-11-27 00:23:03,0.22,1.42,0.00,22.61,23.95,26.93,5.93,30.79,997.74,2058.83,3046.91,2934.12,3169.76,350.01,318.38,9.55,0000 0000 0000 0000 000000
2013-11-27 00:24:03,0.11,1.43,0.00,22.59,23.97,26.90,5.78,30.54,997.87,2058.70,3046.39,2934.01,3169.30,349.01,317.34,9.56,0000 0000 0000 0000 000000
2013-11-27 00:25:03,0.04,1.43,0.00,22.62,23.97,26.88,5.83,31.42,997.88,2058.67,3046.11,2933.56,3169.11,350.38,318.59,9.56,0000 0000 0000 0000 000000
2013-11-27 00:26:03,0.21,1.43,0.00,22.66,23.97,26.93,5.67,31.13,997.77,2058.52,3045.67,2933.20,3168.77,348.33,317.39,9.57,0000 0000 0000 0000 000000
2013-11-27 00:27:03,0.04,1.43,0.00,22.68,23.97,26.97,5.80,31.04,997.71,2058.40,3045.26,2933.07,3168.30,349.93,318.58,9.57,0000 0000 0000 0000 000000
2013-11-27 00:28:04,0.10,1.43,0.00,22.62,23.98,26.96,5.92,31.50,997.70,2058.31,3045.07,2932.81,3168.11,349.49,318.22,9.58,0000 0000 0000 0000 000000
2013-11-27 00:29:04,0.05,1.43,0.00,22.57,23.99,26.96,5.69,31.38,997.69,2058.24,3044.62,2932.34,3167.85,349.60,318.03,9.59,0000 0000 0000 0000 000000
2013-11-27 00:30:04,0.16,1.43,0.00,22.58,23.99,26.98,5.93,31.71,997.78,2058.14,3044.23,2932.12,3167.36,350.39,318.77,9.59,0000 0000 0000 0000 000000
2013-11-27 00:31:04,0.10,1.43,0.00,22.61,24.00,26.92,5.85,31.63,997.81,2058.09,3044.00,2931.98,3167.11,350.02,318.55,9.60,0000 0000 0000 0000 000000
2013-11-27 00:32:04,0.04,1.43,0.00,22.61,24.00,26.96,5.85,31.46,997.63,2058.07,3043.49,2931.49,3166.61,350.45,318.75,9.60,0000 0000 0000 0000 000000
2013-11-27 00:33:05,0.30,1.43,0.00,22.60,24.00,26.97,5.96,31.67,997.74,2058.05,3043.12,2931.15,3166.21,350.02,318.11,9.61,0000 0000 0000 0000 000000
2013-11-27 00:34:05,0.15,1.43,0.00,22.66,24.02,26.99,5.88,31.58,997.82,2058.04,3042.61,2930.85,3165.92,349.58,317.77,9.62,0000 0000 0000 0000 000000
2013-11-27 00:35:05,0.22,1.43,0.00,22.65,24.02,27.00,5.95,31.67,997.96,2058.02,3042.24,2930.37,3165.41,349.63,318.30,9.62,0000 0000 0000 0000 000000
2013-11-27 00:36:05,0.22,1.43,0.00,22.66,24.02,26.99,5.78,31.42,997.98,2058.02,3042.01,2930.14,3165.14,350.33,318.03,9.63,0000 0000 0000 0000 000000
2013-11-27 00:37:05,0.11,1.44,0.00,22.64,24.02,26.98,5.93,31.54,997.97,2058.04,3041.64,2930.00,3164.86,349.83,318.19,9.63,0000 0000 0000 0000 000000
2013-11-27 00:38:05,0.14,1.44,0.00,22.66,24.03,26.98,6.02,31.33,998.05,2058.02,3041.24,2929.52,3164.36,350.70,319.05,9.64,0000 0000 0000 0000 000000
2013-11-27 00:39:06,0.27,1.44,0.00,22.66,24.04,26.99,5.78,31.38,998.06,2058.00,3041.01,2929.19,3164.13,349.59,318.04,9.65,0000 0000 0000 0000 000000
2013-11-27 00:40:06,0.11,1.44,0.00,22.68,24.05,27.00,6.02,31.17,998.06,2058.01,3040.51,2929.05,3163.86,350.29,318.67,9.65,0000 0000 0000 0000 000000
2013-11-27 00:41:06,0.17,1.44,0.00,22.66,24.05,27.00,5.92,31.04,998.05,2058.01,3040.18,2928.75,3163.36,350.08,318.49,9.66,0000 0000 0000 0000 000000
2013-11-27 00:42:07,0.20,1.44,0.00,22.64,24.05,27.00,6.08,31.67,998.05,2058.00,3039.92,2928.30,3163.13,351.48,319.79,9.66,0000 0000 0000 0000 000000
2013-11-27 00:43:07,0.18,1.44,0.00,22.58,24.06,27.00,5.84,32.00,997.99,2058.00,3039.43,2928.10,3162.84,349.54,318.07,9.67,0000 0000 0000 0000 000000
2013-11-27 00:44:07,0.16,1.44,0.00,22.63,24.07,27.00,5.82,32.13,997.84,2058.00,3039.11,2927.96,3162.35,350.05,318.43,9.67,0000 0000 0000 0000 000000
2013-11-27 00:45:07,0.15,1.44,0.00,22.64,24.07,26.99,5.80,31.29,997.86,2058.00,3038.65,2927.53,3162.11,349.66,318.23,9.68,0000 0000 0000 0000 000000
2013-11-27 00:46:07,0.23,1.45,0.00,22.62,24.07,27.00,5.80,31.67,997.79,2058.00,3038.24,2927.20,3161.74,350.39,318.80,9.69,0000 0000 0000 0000 000000
2013-11-27 00:47:08,0.19,1.45,0.00,22.65,24.07,27.02,5.90,31.58,997.72,2058.00,3038.00,2927.04,3161.28,350.08,318.40,9.69,0000 0000 0000 0000 000000
2013-11-27 00:48:08,0.14,1.45,0.00,22.67,24.08,27.00,5.88,31.67,997.62,2058.00,3037.50,2926.65,3161.08,349.85,318.13,9.70,0000 0000 0000 0000 000000
2013-11-27 00:49:08,0.21,1.45,0.00,22.66,24.09,27.02,5.90,31.42,997.63,2058.00,3037.19,2926.26,3160.81,349.99,318.28,9.70,0000 0000 0000 0000 000000
2013-11-27 00:50:08,0.19,1.45,0.00,22.69,24.10,27.03,5.85,31.17,997.67,2058.00,3036.97,2926.09,3160.33,350.68,318.59,9.71,0000 0000 0000 0000 000000
2013-11-27 00:51:08,0.14,1.45,0.00,22.69,24.10,27.03,5.98,31.92,997.69,2058.00,3036.49,2925.89,3160.06,350.93,318.93,9.72,0000 0000 0000 0000 000000
2013-11-27 00:52:08,0.16,1.45,0.00,22.66,24.10,27.03,5.91,31.63,997.60,2057.99,3036.13,2925.37,3159.50,350.73,319.34,9.72,0000 0000 0000 0000 000000
2013-11-27 00:53:08,0.27,1.45,0.00,22.70,24.10,27.03,5.75,31.17,997.60,2057.99,3035.55,2925.12,3159.18,350.13,318.35,9.73,0000 0000 0000 0000 000000
2013-11-27 00:54:09,0.19,1.45,0.00,22.64,24.11,27.04,5.72,31.33,997.58,2057.99,3035.19,2924.81,3158.92,349.19,317.56,9.73,0000 0000 0000 0000 000000
2013-11-27 00:55:09,0.18,1.46,0.00,22.66,24.12,27.04,5.88,31.29,997.58,2057.99,3034.99,2924.34,3158.40,350.00,318.27,9.74,0000 0000 0000 0000 000000
2013-11-27 00:56:09,0.23,1.46,0.00,22.63,24.12,27.03,5.85,31.42,997.59,2057.97,3034.53,2924.12,3158.13,350.10,318.40,9.74,0000 0000 0000 0000 000000
2013-11-27 00:57:09,0.14,1.46,0.00,22.66,24.12,27.04,5.89,31.46,997.59,2057.98,3034.19,2924.03,3157.98,349.81,318.29,9.75,0000 0000 0000 0000 000000
2013-11-27 00:58:10,0.09,1.46,0.00,22.68,24.12,27.06,5.62,31.63,997.59,2057.98,3033.89,2923.69,3157.52,348.18,316.58,9.76,0000 0000 0000 0000 000000
2013-11-27 00:59:10,0.22,1.46,0.00,22.69,24.13,27.06,5.93,31.67,997.61,2057.97,3033.40,2923.27,3157.20,349.10,317.92,9.76,0000 0000 0000 0000 000000
2013-11-27 01:00:10,0.21,1.46,0.00,22.68,24.14,27.07,5.99,31.25,997.61,2057.96,3033.14,2923.09,3156.95,349.97,318.23,9.77,0000 0000 0000 0000 000000
2013-11-27 01:01:10,0.09,1.46,0.00,22.65,24.14,27.07,5.74,31.17,997.57,2057.97,3032.76,2922.85,3156.43,348.95,317.32,9.77,0000 0000 0000 0000 000000
2013-11-27 01:02:11,0.22,1.46,0.00,22.63,24.15,27.07,5.79,31.58,997.57,2057.97,3032.28,2922.37,3156.15,350.64,318.88,9.78,0000 0000 0000 0000 000000
2013-11-27 01:03:11,0.21,1.46,0.00,22.62,24.15,27.08,5.81,31.33,997.59,2057.95,3032.09,2922.13,3155.98,350.09,318.40,9.79,0000 0000 0000 0000 000000
2013-11-27 01:04:11,0.10,1.46,0.00,22.66,24.15,27.09,5.85,31.42,997.57,2057.94,3031.72,2922.01,3155.48,348.92,317.28,9.79,0000 0000 0000 0000 000000
2013-11-27 01:05:12,0.17,1.47,0.00,22.66,24.15,27.09,5.95,31.46,997.57,2057.89,3031.26,2921.60,3155.17,350.57,318.79,9.80,0000 0000 0000 0000 000000
2013-11-27 01:06:12,0.18,1.47,0.00,22.67,24.17,27.08,5.92,31.17,997.58,2057.87,3031.05,2921.24,3154.92,350.52,318.72,9.80,0000 0000 0000 0000 000000
2013-11-27 01:07:12,0.11,1.47,0.00,22.69,24.17,27.09,6.01,31.42,997.60,2057.81,3030.53,2921.07,3154.43,350.85,319.26,9.81,0000 0000 0000 0000 000000
2013-11-27 01:08:12,0.16,1.47,0.00,22.72,24.17,27.08,5.98,31.50,997.59,2057.81,3030.19,2920.94,3154.16,350.79,318.76,9.81,0000 0000 0000 0000 000000
2013-11-27 01:09:13,0.12,1.47,0.00,22.69,24.17,27.10,5.92,31.38,997.61,2057.80,3030.00,2920.57,3154.03,349.59,317.87,9.82,0000 0000 0000 0000 000000
2013-11-27 01:10:13,0.14,1.47,0.00,22.71,24.17,27.09,5.77,31.46,997.63,2057.71,3029.49,2920.22,3153.64,349.70,317.95,9.83,0000 0000 0000 0000 000000
2013-11-27 01:11:13,0.13,1.47,0.00,22.67,24.18,27.09,5.83,31.33,997.59,2057.61,3029.17,2920.07,3153.24,350.11,318.36,9.83,0000 0000 0000 0000 000000
2013-11-27 01:12:13,0.08,1.47,0.00,22.67,24.19,27.12,6.05,31.54,997.61,2057.57,3028.80,2919.75,3153.06,350.34,318.62,9.84,0000 0000 0000 0000 000000
2013-11-27 01:13:13,0.15,1.47,0.00,22.69,24.20,27.13,5.79,31.58,997.59,2057.59,3028.37,2919.32,3152.71,349.63,317.90,9.84,0000 0000 0000 0000 000000
2013-11-27 01:14:13,0.21,1.47,0.00,22.70,24.20,27.11,5.76,31.13,997.62,2057.44,3028.13,2919.11,3152.28,350.01,318.32,9.85,0000 0000 0000 0000 000000
2013-11-27 01:15:13,0.03,1.47,0.00,22.71,24.20,27.10,5.79,31.25,997.65,2057.26,3027.94,2919.00,3152.07,350.05,317.51,9.86,0000 0000 0000 0000 000000
2013-11-27 01:16:14,-0.05,1.47,0.00,22.71,24.20,27.09,6.03,31.50,997.60,2057.18,3027.46,2918.56,3151.66,351.44,319.04,9.86,0000 0000 0000 0000 000000
2013-11-27 01:17:14,0.20,1.47,0.00,22.71,24.20,27.11,5.88,31.17,997.64,2057.15,3027.16,2918.21,3151.25,349.69,317.95,9.87,0000 0000 0000 0000 000000
2013-11-27 01:18:14,0.17,1.48,0.00,22.70,24.21,27.13,6.03,31.75,997.60,2057.11,3026.91,2918.07,3151.08,349.86,318.16,9.87,0000 0000 0000 0000 000000
2013-11-27 01:19:14,0.07,1.48,0.00,22.73,24.22,27.12,5.88,31.38,997.58,2057.07,3026.40,2917.95,3150.73,349.69,318.05,9.88,0000 0000 0000 0000 000000
2013-11-27 01:20:15,0.13,1.48,0.00,22.74,24.22,27.10,5.85,31.29,997.59,2057.05,3026.13,2917.46,3150.28,349.40,318.12,9.88,0000 0000 0000 0000 000000
2013-11-27 01:21:15,0.20,1.48,0.00,22.73,24.22,27.08,5.73,31.13,997.57,2057.04,3025.81,2917.17,3150.08,349.47,317.21,9.89,0000 0000 0000 0000 000000
2013-11-27 01:22:15,0.13,1.48,0.00,22.74,24.22,27.12,5.88,31.46,997.57,2057.03,3025.34,2917.03,3149.81,349.27,317.51,9.90,0000 0000 0000 0000 000000
2013-11-27 01:23:15,0.13,1.48,0.00,22.75,24.22,27.11,5.92,31.42,997.58,2057.01,3025.11,2916.73,3149.34,350.15,318.31,9.90,0000 0000 0000 0000 000000
2013-11-27 01:24:16,0.17,1.48,0.00,22.73,24.22,27.13,5.90,31.04,997.57,2057.00,3024.81,2916.32,3149.12,350.42,318.57,9.91,0000 0000 0000 0000 000000
2013-11-27 01:25:16,0.18,1.48,0.00,22.72,24.23,27.11,5.90,31.04,997.57,2057.00,3024.32,2916.12,3148.94,349.97,318.17,9.91,0000 0000 0000 0000 000000
2013-11-27 01:26:16,0.15,1.48,0.00,22.73,24.24,27.14,5.74,31.50,997.57,2057.00,3024.11,2916.04,3148.47,349.12,317.51,9.92,0000 0000 0000 0000 000000
2013-11-27 01:27:16,0.12,1.48,0.00,22.70,24.25,27.12,5.98,31.33,997.57,2057.00,3023.92,2915.78,3148.17,350.83,318.98,9.93,0000 0000 0000 0000 000000
2013-11-27 01:28:17,0.14,1.48,0.00,22.72,24.25,27.14,5.83,31.38,997.57,2057.01,3023.46,2915.34,3148.03,349.50,317.78,9.93,0000 0000 0000 0000 000000
2013-11-27 01:29:17,0.20,1.48,0.00,22.72,24.25,27.13,5.78,31.17,997.57,2057.00,3023.15,2915.13,3147.57,350.19,317.89,9.94,0000 0000 0000 0000 000000
2013-11-27 01:30:17,0.16,1.49,0.00,22.72,24.25,27.17,5.70,31.04,997.57,2057.00,3022.84,2915.01,3147.21,349.56,317.80,9.94,0000 0000 0000 0000 000000
2013-11-27 01:31:17,0.13,1.49,0.00,22.73,24.25,27.15,5.67,31.17,997.55,2057.01,3022.37,2914.71,3147.06,349.05,317.32,9.95,0000 0000 0000 0000 000000
2013-11-27 01:32:18,0.17,1.49,0.00,22.75,24.25,27.13,5.87,30.96,997.55,2057.01,3022.13,2914.27,3146.79,350.38,318.51,9.95,0000 0000 0000 0000 000000
2013-11-27 01:33:18,0.18,1.49,0.00,22.76,24.27,27.15,5.73,30.63,997.56,2057.01,3021.94,2914.10,3146.31,349.33,317.55,9.96,0000 0000 0000 0000 000000
2013-11-27 01:34:18,0.14,1.49,0.00,22.71,24.27,27.13,5.86,31.17,997.57,2057.00,3021.42,2913.96,3146.10,348.86,317.44,9.97,0000 0000 0000 0000 000000
2013-11-27 01:35:18,0.15,1.49,0.00,22.69,24.27,27.12,5.72,31.04,997.57,2057.00,3021.15,2913.47,3145.78,348.65,317.01,9.97,0000 0000 0000 0000 000000
2013-11-27 01:36:19,0.22,1.49,0.00,22.76,24.27,27.11,5.58,31.17,997.53,2057.00,3020.86,2913.17,3145.32,349.03,317.27,9.98,0000 0000 0000 0000 000000
2013-11-27 01:37:19,0.18,1.49,0.00,22.78,24.27,27.14,5.72,31.21,997.54,2057.00,3020.39,2913.03,3145.05,350.09,318.20,9.98,0000 0000 0000 0000 000000
2013-11-27 01:38:19,0.15,1.49,0.00,22.79,24.27,27.14,5.61,31.21,997.56,2057.00,3020.14,2912.61,3144.55,348.72,317.25,9.99,0000 0000 0000 0000 000000
2013-11-27 01:39:19,0.22,1.50,0.00,22.78,24.27,27.12,5.94,31.17,997.57,2057.00,3019.69,2912.23,3144.20,351.11,319.20,10.00,0000 0000 0000 0000 000000
2013-11-27 01:40:20,0.20,1.50,0.00,22.75,24.28,27.17,6.15,31.67,997.57,2057.00,3019.28,2912.08,3144.07,349.65,318.11,10.00,0000 0000 0000 0000 000000
2013-11-27 01:41:20,0.11,1.50,0.00,22.72,24.29,27.16,6.00,31.38,997.57,2057.00,3019.04,2911.98,3143.76,350.50,318.37,10.01,0000 0000 0000 0000 000000
2013-11-27 01:42:20,0.11,1.50,0.00,22.74,24.29,27.16,5.79,31.42,997.57,2057.00,3018.60,2911.50,3143.29,349.95,317.53,10.01,0000 0000 0000 0000 000000
2013-11-27 01:43:20,0.26,1.50,0.00,22.74,24.30,27.17,5.87,31.04,997.57,2057.00,3018.22,2911.17,3143.08,350.20,318.56,10.02,0000 0000 0000 0000 000000
2013-11-27 01:44:20,0.17,1.50,0.00,22.74,24.30,27.19,5.77,31.00,997.57,2056.99,3017.87,2910.89,3142.61,349.00,317.27,10.03,0000 0000 0000 0000 000000
2013-11-27 01:45:21,0.20,1.50,0.00,22.73,24.30,27.19,5.85,31.50,997.57,2056.99,3017.34,2910.37,3142.22,350.69,318.81,10.03,0000 0000 0000 0000 000000
2013-11-27 01:46:21,0.25,1.50,0.00,22.73,24.30,27.16,6.08,31.63,997.57,2056.98,3017.12,2910.13,3141.89,350.69,318.81,10.04,0000 0000 0000 0000 000000
2013-11-27 01:47:21,0.14,1.50,0.00,22.74,24.30,27.16,5.94,31.71,997.57,2056.98,3016.90,2909.97,3141.37,349.99,318.17,10.04,0000 0000 0000 0000 000000
2013-11-27 01:48:21,0.17,1.50,0.00,22.77,24.30,27.20,5.87,31.04,997.58,2056.98,3016.38,2909.48,3141.13,349.60,317.78,10.05,0000 0000 0000 0000 000000
2013-11-27 01:49:22,0.22,1.51,0.00,22.80,24.31,27.19,5.72,31.04,997.59,2056.97,3016.12,2909.17,3140.87,348.66,316.90,10.05,0000 0000 0000 0000 000000
2013-11-27 01:50:22,0.15,1.51,0.00,22.79,24.32,27.17,5.93,31.25,997.65,2056.97,3015.79,2909.03,3140.36,349.90,318.05,10.06,0000 0000 0000 0000 000000
2013-11-27 01:51:22,0.18,1.51,0.00,22.82,24.32,27.16,5.88,31.63,997.81,2056.96,3015.30,2908.59,3140.12,349.48,317.68,10.07,0000 0000 0000 0000 000000
2013-11-27 01:52:23,0.22,1.51,0.00,22.80,24.32,27.19,5.82,31.42,997.94,2056.95,3015.02,2908.22,3139.65,349.33,317.61,10.07,0000 0000 0000 0000 000000
2013-11-27 01:53:23,0.19,1.51,0.00,22.79,24.32,27.16,5.73,31.29,998.02,2056.96,3014.54,2908.08,3139.25,349.47,317.78,10.08,0000 0000 0000 0000 000000
2013-11-27 01:54:23,0.18,1.51,0.00,22.82,24.32,27.20,5.90,31.17,998.06,2056.96,3014.19,2907.72,3139.07,350.45,318.66,10.08,0000 0000 0000 0000 000000
2013-11-27 01:55:23,0.17,1.51,0.00,22.84,24.32,27.22,5.72,31.42,998.06,2056.89,3013.95,2907.29,3138.59,349.96,318.14,10.09,0000 0000 0000 0000 000000
2013-11-27 01:56:23,0.17,1.51,0.00,22.84,24.32,27.21,5.72,31.42,998.07,2056.85,3013.44,2907.10,3138.21,350.24,317.56,10.10,0000 0000 0000 0000 000000
2013-11-27 01:57:24,0.10,1.51,0.00,22.82,24.33,27.20,5.81,31.21,998.06,2056.58,3013.15,2906.86,3137.89,349.26,317.93,10.10,0000 0000 0000 0000 000000
2013-11-27 01:58:24,-0.02,1.51,0.00,22.85,24.34,27.17,5.91,31.58,998.07,2056.56,3012.76,2906.37,3137.38,349.61,317.87,10.11,0000 0000 0000 0000 000000
2013-11-27 01:59:24,0.21,1.52,0.00,22.89,24.34,27.21,6.11,32.00,998.08,2056.53,3012.28,2906.13,3137.14,349.46,318.17,10.11,0000 0000 0000 0000 000000
2013-11-27 02:00:24,0.13,1.52,0.00,22.87,24.35,27.23,5.77,31.29,998.08,2056.36,3012.06,2905.97,3136.82,349.54,317.84,10.12,0000 0000 0000 0000 000000
2013-11-27 02:01:25,0.04,1.52,0.00,22.88,24.35,27.21,5.82,31.46,998.07,2056.33,3011.57,2905.50,3136.34,349.34,317.13,10.12,0000 0000 0000 0000 000000
2013-11-27 02:02:25,0.21,1.52,0.00,22.88,24.35,27.23,5.56,30.92,998.10,2056.29,3011.21,2905.19,3136.11,349.35,317.61,10.13,0000 0000 0000 0000 000000
2013-11-27 02:03:25,0.15,1.52,0.00,22.85,24.35,27.23,5.94,31.50,998.08,2056.28,3010.99,2905.07,3135.77,350.73,319.01,10.14,0000 0000 0000 0000 000000
2013-11-27 02:04:25,0.15,1.52,0.00,22.85,24.35,27.23,5.80,31.25,998.08,2056.27,3010.49,2904.85,3135.28,349.42,317.69,10.14,0000 0000 0000 0000 000000
2013-11-27 02:05:26,0.16,1.52,0.00,22.81,24.35,27.20,6.01,31.50,998.07,2056.19,3010.18,2904.38,3135.10,351.55,319.66,10.15,0000 0000 0000 0000 000000
2013-11-27 02:06:26,0.12,1.52,0.00,22.80,24.36,27.23,5.82,31.54,998.06,2056.23,3009.94,2904.14,3135.01,350.50,318.73,10.15,0000 0000 0000 0000 000000
2013-11-27 02:07:26,0.15,1.52,0.00,22.79,24.37,27.21,5.84,31.71,998.05,2056.21,3009.46,2904.04,3134.60,349.87,318.17,10.16,0000 0000 0000 0000 000000
2013-11-27 02:08:27,0.18,1.52,0.00,22.82,24.37,27.21,5.98,31.79,998.03,2056.13,3009.16,2903.65,3134.23,350.71,318.89,10.17,0000 0000 0000 0000 000000
2013-11-27 02:09:27,0.12,1.52,0.00,22.82,24.37,27.23,6.01,31.79,998.01,2056.07,3008.75,2903.25,3133.97,350.89,318.96,10.17,0000 0000 0000 0000 000000
2013-11-27 02:10:27,0.15,1.52,0.00,22.78,24.37,27.23,5.92,31.63,997.89,2056.04,3008.28,2903.08,3133.45,350.72,318.56,10.18,0000 0000 0000 0000 000000
2013-11-27 02:11:27,0.16,1.53,0.00,22.80,24.37,27.24,5.89,31.54,997.67,2056.05,3008.10,2902.83,3133.16,349.85,318.01,10.18,0000 0000 0000 0000 000000
2013-11-27 02:12:28,0.15,1.53,0.00,22.79,24.37,27.23,5.86,31.54,997.62,2056.06,3007.82,2902.35,3132.91,350.01,318.14,10.19,0000 0000 0000 0000 000000
2013-11-27 02:13:28,0.21,1.53,0.00,22.79,24.37,27.27,5.82,31.50,997.58,2056.05,3007.35,2902.13,3132.41,348.94,317.10,10.20,0000 0000 0000 0000 000000
2013-11-27 02:14:28,0.19,1.53,0.00,22.77,24.38,27.28,5.80,31.29,997.57,2056.06,3007.12,2901.99,3132.14,350.32,318.44,10.20,0000 0000 0000 0000 000000
2013-11-27 02:15:29,0.13,1.53,0.00,22.81,24.39,27.25,5.78,31.21,997.57,2056.04,3006.90,2901.51,3131.85,349.15,317.33,10.21,0000 0000 0000 0000 000000
2013-11-27 02:16:29,0.17,1.53,0.00,22.82,24.39,27.25,5.83,31.42,997.57,2056.01,3006.36,2901.18,3131.33,350.81,318.83,10.21,0000 0000 0000 0000 000000
2013-11-27 02:17:29,0.22,1.53,0.00,22.79,24.40,27.19,5.77,31.42,997.57,2056.00,3006.12,2901.00,3131.11,349.84,317.97,10.22,0000 0000 0000 0000 000000
2013-11-27 02:18:29,0.14,1.53,0.00,22.79,24.40,27.22,5.72,31.50,997.54,2056.01,3005.68,2900.55,3130.72,348.69,316.82,10.22,0000 0000 0000 0000 000000
2013-11-27 02:19:30,0.22,1.53,0.00,22.77,24.40,27.28,5.84,31.79,997.37,2056.00,3005.26,2900.21,3130.27,350.55,318.69,10.23,0000 0000 0000 0000 000000
2013-11-27 02:20:30,0.20,1.54,0.00,22.81,24.40,27.25,5.64,31.63,997.21,2056.00,3005.06,2900.07,3130.06,349.48,317.50,10.24,0000 0000 0000 0000 000000
2013-11-27 02:21:30,0.11,1.54,0.00,22.82,24.40,27.28,5.71,31.63,997.13,2056.00,3004.57,2899.87,3129.68,350.16,318.09,10.24,0000 0000 0000 0000 000000
2013-11-27 02:22:31,0.20,1.54,0.00,22.84,24.40,27.24,5.77,31.50,997.15,2056.00,3004.21,2899.37,3129.26,349.61,317.59,10.25,0000 0000 0000 0000 000000
2013-11-27 02:23:31,0.21,1.54,0.00,22.84,24.40,27.23,5.94,31.38,997.13,2056.00,3004.00,2899.13,3128.94,349.72,317.50,10.25,0000 0000 0000 0000 000000
2013-11-27 02:24:31,0.18,1.54,0.00,22.84,24.40,27.26,5.87,31.42,997.22,2056.01,3003.51,2898.75,3128.39,350.00,317.96,10.26,0000 0000 0000 0000 000000
2013-11-27 02:25:32,0.24,1.54,0.00,22.80,24.41,27.24,5.59,31.63,997.24,2056.00,3003.16,2898.29,3128.12,348.13,316.31,10.27,0000 0000 0000 0000 000000
2013-11-27 02:26:32,0.21,1.54,0.00,22.84,24.42,27.25,5.96,31.17,997.46,2056.00,3002.58,2898.09,3127.76,350.40,318.39,10.27,0000 0000 0000 0000 000000
2013-11-27 02:27:32,0.17,1.54,0.00,22.84,24.42,27.30,5.90,31.75,997.51,2056.00,3002.22,2897.97,3127.37,350.07,318.12,10.28,0000 0000 0000 0000 000000
2013-11-27 02:28:32,0.17,1.54,0.00,22.81,24.42,27.26,5.65,31.46,997.51,2056.00,3002.04,2897.48,3127.12,349.16,317.32,10.28,0000 0000 0000 0000 000000
2013-11-27 02:29:33,0.18,1.55,0.00,22.81,24.42,27.22,5.59,31.58,997.56,2056.00,3001.66,2897.17,3126.75,347.75,316.05,10.29,0000 0000 0000 0000 000000
2013-11-27 02:30:33,0.19,1.55,0.00,22.87,24.42,27.22,5.83,31.33,997.55,2056.00,3001.26,2897.03,3126.29,349.70,317.76,10.29,0000 0000 0000 0000 000000
2013-11-27 02:31:33,0.17,1.55,0.00,22.85,24.42,27.25,5.92,31.88,997.50,2056.00,3001.03,2896.61,3126.11,350.44,318.44,10.30,0000 0000 0000 0000 000000
2013-11-27 02:32:33,0.18,1.55,0.00,22.87,24.42,27.23,5.79,31.33,997.49,2056.00,3000.57,2896.24,3125.78,350.38,318.36,10.31,0000 0000 0000 0000 000000
2013-11-27 02:33:34,0.21,1.55,0.00,22.86,24.42,27.28,6.00,31.21,997.49,2056.00,3000.20,2896.08,3125.31,350.77,318.95,10.31,0000 0000 0000 0000 000000
2013-11-27 02:34:34,0.17,1.55,0.00,22.86,24.42,27.30,5.84,31.17,997.35,2056.00,2999.95,2895.81,3125.09,349.12,317.17,10.32,0000 0000 0000 0000 000000
2013-11-27 02:35:34,0.17,1.55,0.00,22.83,24.43,27.24,5.66,31.50,997.28,2056.00,2999.47,2895.37,3124.67,349.74,317.74,10.32,0000 0000 0000 0000 000000
2013-11-27 02:36:35,0.22,1.55,0.00,22.84,24.44,27.29,5.88,31.67,997.27,2056.00,2999.17,2895.14,3124.25,350.50,318.43,10.33,0000 0000 0000 0000 000000
2013-11-27 02:37:35,0.16,1.55,0.00,22.87,24.44,27.26,5.83,31.29,997.20,2056.00,2998.92,2895.00,3124.08,348.75,316.89,10.34,0000 0000 0000 0000 000000
2013-11-27 02:38:35,0.15,1.56,0.00,22.89,24.45,27.25,6.03,31.58,997.19,2055.99,2998.41,2894.51,3123.62,350.20,318.15,10.34,0000 0000 0000 0000 000000